Location: Blienschwiller
(48.3416°N, 7.4182°E)
Time: 03:28:16
(UTC+00:00)

Daily predictions for brighter satellites

Satellite Brightness Start Highest point End
(mag) Time Altitude Azimuth Time Altitude Azimuth Time Altitude Azimuth
CZ-4C R/B 4.4 02:16:59 22° NE 02:16:59 22° NE 02:19:09 10° NE
Cosmos 1943 Rocket 4.4 02:31:37 19° NNE 02:32:43 20° NE 02:36:42 10° E
USA 215 4.1 02:31:12 10° NE 02:35:33 45° NE 02:35:33 45° NE
SL-16 R/B 3.9 02:46:28 27° E 02:46:28 27° E 02:50:39 10° NE
NOSS 3-1 (A) 4.1 02:56:40 72° NE 02:56:48 72° NE 03:05:18 10° SE
Cosmos 2369 Rocket 4.3 02:53:23 14° N 02:56:58 24° NE 03:01:30 10° E
Cosmos 2333 Rocket 3.9 03:19:49 23° N 03:19:49 23° N 03:22:21 10° NNE
IDEFIX/ARIANE 42P 3.9 03:19:11 10° NNE 03:21:52 31° N 03:21:52 31° N
Cosmos 2251 Rocket 4.2 03:28:27 49° ESE 03:28:28 49° ESE 03:33:34 10° NNE
ATLAS 2AS CENTAUR R/B 4.5 03:26:54 20° NNW 03:30:18 26° N 03:36:29 10° ENE
PAYLOAD A 4.5 03:30:17 10° NNE 03:34:30 56° ENE 03:34:30 56° ENE
BREEZE M DEB (TANK) 4.4 03:12:11 10° WNW 03:36:45 70° SW 03:42:06 10° SE
Cosmos 1535 Rocket 4.3 03:34:25 10° N 03:40:43 88° W 03:46:54 10° S
ATLAS CENTAUR R/B 2.4 03:46:18 49° NE 03:46:18 49° NE 03:49:35 10° NE
Cosmos 2237 Rocket 3.0 03:48:41 38° NNW 03:48:41 38° NNW 03:52:42 10° NNE
Lacrosse 5 2.1 03:47:37 67° NE 03:47:37 67° NE 03:52:28 10° ESE
NOSS 3-1 (C) 4.3 03:53:58 48° SW 03:53:58 48° SW 04:01:23 10° S
MSX 3.7 03:48:58 10° N 03:54:27 69° NW 03:54:27 69° NW
H-2A R/B 3.7 03:50:38 10° NNE 03:54:49 43° E 03:57:25 21° SSE
GEOS 3 Rocket 4.4 03:50:03 10° NE 03:55:11 47° ESE 03:57:21 31° S
BREEZE-M DEB (TANK) 3.7 03:54:29 49° WNW 03:56:25 72° N 04:00:43 10° ENE
ADEOS 3.5 03:51:20 10° NNE 03:56:19 77° NNW 03:56:19 77° NNW
Cosmos 2219 Rocket 3.9 03:58:45 19° NNW 03:58:45 19° NNW 04:01:40 10° N
CZ-2C R/B 2.5 03:53:05 10° NNE 03:58:19 82° ESE 03:59:16 60° S
BREEZE-M DEB (TANK) 3.9 03:58:30 65° SSE 03:58:32 65° SSE 04:06:50 10° ENE
Meteor 1-31 Rocket 3.7 03:55:43 10° NNE 03:59:23 47° E 03:59:23 47° E
Cosmos 1356 Rocket 4.0 04:01:13 52° NE 04:01:13 52° NE 04:04:31 10° NNE
CZ-4C R/B 2.9 04:02:10 40° NNW 04:02:10 40° NNW 04:08:06 10° NE
Meteor 2-10 Rocket 3.4 04:03:59 74° SW 04:04:23 80° WNW 04:09:36 10° N
Cosmos 1842 Rocket 4.4 04:02:57 12° SSE 04:06:56 51° E 04:11:18 10° NNE
Cosmos 1934 Rocket 4.1 04:09:26 10° NNW 04:15:29 50° W 04:21:34 10° SSW
COSMOS 2428 4.4 04:16:33 18° NNW 04:16:33 18° NNW 04:19:49 10° N
NOSS 2-1 (E) 3.7 04:17:28 51° NNE 04:17:28 51° NNE 04:20:32 10° NE
Cosmos 1943 Rocket 2.1 04:13:12 19° NNW 04:17:19 86° ENE 04:22:49 10° SSE
ALOS 3.7 04:14:39 10° NNE 04:19:03 39° E 04:23:24 10° SSE
USA 215 3.8 04:14:13 10° ENE 04:20:24 46° NNW 04:22:54 32° WNW
Cosmos 921 Rocket 4.3 04:17:48 10° N 04:22:03 42° ENE 04:26:13 10° SE
CZ-4B R/B 4.0 04:17:47 10° NNE 04:22:06 85° ESE 04:24:21 29° S
COSMO-SKYMED 1 3.0 04:19:43 10° SSE 04:24:00 62° ENE 04:28:18 10° N
STARLINK-1129 4.4 04:24:44 32° NNE 04:24:44 32° NNE 04:27:07 10° ENE
STARLINK-1134 4.3 04:26:33 33° NNE 04:26:33 33° NNE 04:29:01 10° ENE
STARLINK-1135 4.3 04:28:49 33° NNE 04:28:49 33° NNE 04:31:23 10° ENE
SL-16 R/B 2.3 04:28:21 44° WSW 04:29:43 55° WNW 04:35:19 10° NNE
STARLINK-1141 4.2 04:30:54 34° N 04:30:54 34° N 04:33:33 10° ENE
STARLINK-1140 4.1 04:32:54 34° N 04:32:54 34° N 04:35:39 10° ENE
Cosmos 2221 2.6 04:29:44 10° S 04:33:58 74° E 04:38:17 10° NNE
STARLINK-1156 4.1 04:34:56 34° N 04:34:56 34° N 04:37:47 10° ENE
STARLINK-1170 4.5 04:35:55 24° NNE 04:35:55 24° NNE 04:37:33 10° ENE
STARLINK-1148 4.1 04:36:58 34° N 04:36:58 34° N 04:39:54 10° ENE
Cosmos 1605 Rocket 4.0 04:31:40 10° NNW 04:37:41 51° W 04:43:35 10° SSW
FENGYUN 3A 4.2 04:33:24 10° NNE 04:38:47 59° E 04:44:09 10° S
STARLINK-1158 4.0 04:39:04 34° N 04:39:05 34° N 04:42:06 10° ENE
Cosmos 2369 Rocket 2.1 04:35:55 10° NNW 04:41:41 80° WSW 04:47:23 10° SSE
Spot 2 4.5 04:39:22 10° N 04:42:47 38° NW 04:42:47 38° NW
Aureole 2 Rocket 2.3 04:42:36 39° N 04:43:31 67° ENE 04:46:38 10° SSE
Cosmos 614 Rocket 4.3 04:39:37 10° S 04:44:44 68° ESE 04:49:55 10° NNE
Cosmos 1603 4.0 04:40:15 10° SSW 04:45:55 68° ESE 04:51:35 10° NNE
SKYMED 3 4.4 04:43:44 10° S 04:48:04 77° WSW 04:52:27 10° NNW
Meteor PRIRODA 3.5 04:47:14 10° N 04:50:57 75° WNW 04:54:36 10° SSW
Cosmos 1153 Rocket 4.4 04:45:09 10° NNW 04:51:12 61° W 04:57:13 10° S
Cosmos 1943 3.8 04:46:33 10° S 04:52:02 59° ESE 04:57:35 10° NE
Cosmos 2263 4.1 04:47:56 10° NNW 04:53:41 86° WSW 04:59:20 10° SSE
STARLINK-1179 3.9 04:55:12 27° N 04:55:19 27° N 04:57:37 10° ENE
STARLINK-1176 3.9 04:55:41 27° N 04:55:50 27° N 04:58:08 10° ENE
Meteor 2-3 Rocket 3.9 04:51:49 10° NNW 04:57:19 48° W 05:02:50 10° SSW
CZ-4B R/B 4.3 04:55:22 10° NNE 05:00:30 45° E 05:05:32 10° S
Cosmos 1656 Rocket 3.9 04:56:32 10° NNW 05:02:14 75° ENE 05:07:56 10° SSE
IDEFIX/ARIANE 42P 4.3 05:00:23 10° NNW 05:02:41 15° NW 05:02:41 15° NW
Cosmos 2333 Rocket 4.3 05:02:12 10° NW 05:03:21 11° NNW 05:04:30 10° NNW
Cosmos 1484 Rocket 3.0 05:02:09 10° N 05:05:57 47° WNW 05:09:47 10° SW
Cosmos 1727 Rocket 4.0 04:59:56 10° SSW 05:05:59 56° WNW 05:12:05 10° N
Cosmos 1633 2.4 05:02:22 10° N 05:06:02 85° W 05:09:40 10° S
Cosmos 1238 4.0 05:03:21 10° SSW 05:06:22 78° W 05:09:28 10° N
Cosmos 1805 Rocket 3.4 05:06:22 10° N 05:10:44 84° W 05:15:03 10° S
Cosmos 2251 Rocket 4.4 05:08:58 22° W 05:11:00 29° NW 05:15:36 10° N
SKYMED 2 3.9 05:08:01 10° S 05:12:09 43° W 05:16:19 10° NNW
Cosmos 2173 Rocket 3.9 05:07:15 10° NNW 05:13:33 70° W 05:19:43 10° S
Sich 1 3.1 05:11:12 10° N 05:15:31 80° E 05:19:48 10° SSE
STARLINK-1153 4.0 05:14:21 22° NW 05:15:38 32° N 05:18:19 10° ENE
STARLINK-1180 4.0 05:14:33 21° NW 05:15:52 32° N 05:18:34 10° ENE
STARLINK-1174 4.0 05:15:00 21° NW 05:16:19 32° N 05:19:00 10° ENE
NOSS 2-1 (C) 4.4 05:15:15 21° WNW 05:16:21 24° NNW 05:19:39 10° NNE
STARLINK-1139 4.0 05:15:13 21° NW 05:16:33 32° N 05:19:13 10° ENE
STARLINK-1133 4.0 05:15:25 21° NW 05:16:46 32° N 05:19:27 10° ENE
STARLINK-1151 4.0 05:15:40 21° NW 05:17:00 32° N 05:19:42 10° ENE
STARLINK-1160 4.0 05:16:18 21° NW 05:17:41 32° N 05:20:22 10° ENE
STARLINK-1161 4.0 05:16:32 21° NW 05:17:55 32° N 05:20:36 10° ENE
STARLINK-1145 4.0 05:16:44 21° NW 05:18:08 32° N 05:20:49 10° ENE
Cosmos 1500 Rocket 4.2 05:14:12 10° NNW 05:18:13 34° W 05:22:10 10° SSW
STARLINK-1172 4.0 05:16:57 20° NW 05:18:21 32° N 05:21:02 10° ENE
CZ-4B R/B 3.6 05:15:25 10° N 05:18:36 27° WNW 05:20:20 19° WSW
STARLINK-1162 4.0 05:17:03 20° NW 05:18:43 34° N 05:21:39 10° ENE
STARLINK-1182 4.0 05:17:23 20° NW 05:18:48 32° N 05:21:30 10° ENE
STARLINK-1164 3.9 05:17:35 20° NW 05:19:01 32° N 05:21:43 10° ENE
STARLINK-1168 4.0 05:17:49 20° NW 05:19:16 32° N 05:21:57 10° ENE
STARLINK-1183 3.9 05:18:27 20° NW 05:19:55 32° N 05:22:37 10° ENE
STARLINK-1181 3.9 05:18:40 20° NW 05:20:09 32° N 05:22:50 10° ENE
STARLINK-1157 4.0 05:18:51 19° NW 05:20:36 34° N 05:23:33 10° ENE
STARLINK-1196 3.9 05:19:20 19° NW 05:20:50 32° N 05:23:32 10° ENE
PSLV R/B 3.9 05:17:19 10° N 05:20:55 47° WNW 05:24:33 10° SW
STARLINK-1186 3.9 05:19:46 19° NW 05:21:17 32° N 05:23:59 10° ENE
STARLINK-1185 3.9 05:19:58 19° NW 05:21:30 32° N 05:24:12 10° ENE
STARLINK-1175 3.9 05:20:12 19° NW 05:21:45 32° N 05:24:27 10° ENE
STARLINK-1147 3.9 05:20:24 19° NW 05:21:57 32° N 05:24:39 10° ENE
STARLINK-1146 3.9 05:20:36 19° NW 05:22:11 32° N 05:24:54 10° ENE
STARLINK-1152 3.9 05:20:50 19° NW 05:22:25 32° N 05:25:07 10° ENE
STARLINK-1195 3.9 05:21:03 19° NW 05:22:38 32° N 05:25:21 10° ENE
STARLINK-1159 4.0 05:20:51 19° NW 05:22:41 35° N 05:25:39 10° ENE
Cosmos 1238 Rocket 3.7 05:16:34 10° N 05:22:52 81° W 05:28:14 10° S
STARLINK-1137 3.9 05:21:16 19° NW 05:22:52 32° N 05:25:34 10° ENE
STARLINK-1142 3.9 05:21:30 19° NW 05:23:06 32° N 05:25:48 10° ENE
STARLINK-1127 3.9 05:21:42 19° NW 05:23:18 32° N 05:26:01 10° ENE
Meteor 2-2 Rocket 4.4 05:17:24 10° SSW 05:23:23 66° WNW 05:29:24 10° N
ATLAS 2AS CENTAUR R/B 3.9 05:16:04 10° NW 05:23:26 42° NNE 05:30:15 10° ESE
STARLINK-1184 3.9 05:21:56 18° NW 05:23:33 32° N 05:26:15 10° ENE
Okean O Rocket 1.8 05:19:17 10° NNE 05:23:41 74° ESE 05:28:02 10° S
STARLINK-1193 3.9 05:22:08 18° NW 05:23:46 32° N 05:26:28 10° ENE
STARLINK-1194 3.9 05:22:21 18° NW 05:23:59 32° N 05:26:41 10° ENE
ATLAS CENTAUR R/B 2.9 05:22:30 17° WNW 05:24:30 22° NW 05:28:00 10° NNE
STARLINK-1171 4.0 05:22:59 18° NW 05:24:54 35° N 05:27:52 10° ENE
PAYLOAD B 4.2 05:20:03 10° NNE 05:25:41 87° WNW 05:31:14 10° SSW
STARLINK-1155 4.0 05:24:44 17° NW 05:26:45 35° N 05:29:43 10° ENE
Cosmos 2100 Rocket 4.1 05:21:21 10° NNW 05:27:22 52° W 05:33:18 10° SSW
STARLINK-1166 4.0 05:26:52 16° NW 05:28:58 35° N 05:31:57 10° ENE
H-2A R/B 3.7 05:26:35 10° N 05:30:05 24° WNW 05:33:38 10° WSW
Lacrosse 5 2.8 05:26:51 16° WNW 05:30:05 31° SW 05:34:29 10° S
Cosmos 1340 4.1 05:26:41 10° N 05:30:16 40° ENE 05:33:49 10° SE
STARLINK-1165 4.0 05:28:43 16° NW 05:30:55 36° N 05:33:54 10° ENE
STARLINK-1149 3.8 05:29:32 16° NW 05:31:15 32° N 05:33:43 10° ENE
Cosmos 2237 Rocket 4.1 05:30:31 10° NW 05:32:50 13° NNW 05:35:23 10° N
STARLINK-1169 4.0 05:30:43 15° NW 05:32:59 36° N 05:35:59 10° ENE
GEOS 3 Rocket 4.1 05:28:11 10° NNE 05:33:12 44° NW 05:38:14 10° WSW
Meteor 1-31 Rocket 4.3 05:30:59 10° NNW 05:33:31 17° WNW 05:34:48 15° W
Cosmos 2084 4.2 05:29:18 10° SSW 05:33:43 58° SE 05:38:09 10° NE
STARLINK-1178 4.0 05:32:37 14° NW 05:34:59 36° N 05:37:59 10° ENE
CZ-2C R/B 4.0 05:32:30 10° NNW 05:35:53 18° WNW 05:38:40 12° W
STARLINK-1118 2.8 05:33:41 11° SW 05:36:03 61° SSE 05:38:35 10° ENE
STARLINK-1132 3.8 05:34:49 14° NW 05:36:52 34° N 05:39:27 10° E
STARLINK-1120 4.0 05:34:28 14° WNW 05:36:55 37° N 05:39:55 10° ENE
Cosmos 2061 Rocket 4.0 05:32:18 10° NNW 05:38:32 65° W 05:44:39 10° S
STARLINK-1070 3.0 05:35:46 10° SW 05:38:39 64° SSE 05:41:34 10° ENE
STARLINK-1131 3.9 05:36:36 13° WNW 05:39:08 37° N 05:42:09 10° E
STARLINK-1150 3.7 05:37:17 13° NW 05:39:24 34° NNE 05:41:57 10° E
STARLINK-1124 2.8 05:36:35 10° WSW 05:39:26 77° SSE 05:42:22 10° ENE
STARLINK-1066 3.0 05:36:52 10° SW 05:39:45 65° SSE 05:42:40 10° ENE
STARLINK-1081 3.0 05:37:06 10° SW 05:39:59 66° SSE 05:42:55 10° ENE
ADEOS Rocket 3.2 05:33:47 10° S 05:40:00 74° WSW 05:47:00 10° NNW
STARLINK-1119 4.4 05:36:16 10° SW 05:40:08 49° SE 05:44:00 10° ENE
STARLINK-1069 3.0 05:37:32 10° SW 05:40:26 66° SSE 05:43:21 10° ENE
STARLINK-1111 4.4 05:36:40 10° SW 05:40:33 49° SE 05:44:28 10° ENE
STARLINK-1085 3.0 05:37:46 10° SW 05:40:40 67° SSE 05:43:36 10° ENE
STARLINK-1163 3.7 05:38:34 13° NW 05:40:46 34° NNE 05:43:21 10° E
STARLINK-1086 3.0 05:37:59 10° SW 05:40:53 67° SSE 05:43:49 10° ENE
STARLINK-1095 3.0 05:38:13 10° SW 05:41:07 67° SSE 05:44:02 10° ENE
STARLINK-1190 3.9 05:38:38 13° WNW 05:41:16 37° N 05:44:18 10° E
STARLINK-1077 3.0 05:38:26 10° SW 05:41:21 67° SSE 05:44:15 10° ENE
STARLINK-1075 3.0 05:38:39 10° SW 05:41:34 68° SSE 05:44:29 10° ENE
STARLINK-1093 2.9 05:38:53 10° SW 05:41:47 68° SSE 05:44:42 10° ENE
STARLINK-1074 2.9 05:39:06 10° SW 05:42:00 68° SSE 05:44:55 10° ENE
STARLINK-1087 2.9 05:39:21 10° SW 05:42:15 69° SSE 05:45:10 10° ENE
STARLINK-1173 3.7 05:40:14 12° NW 05:42:27 34° NNE 05:45:01 10° E
STARLINK-1088 2.9 05:39:34 10° SW 05:42:28 69° SSE 05:45:23 10° ENE
STARLINK-1115 2.9 05:39:46 10° SW 05:42:41 69° SSE 05:45:36 10° ENE
STARLINK-1177 3.7 05:40:37 12° NW 05:42:51 34° NNE 05:45:24 10° E
STARLINK-1076 2.9 05:40:01 10° SW 05:42:55 69° SSE 05:45:50 10° ENE
STARLINK-1092 2.9 05:40:14 10° SW 05:43:08 70° SSE 05:46:03 10° ENE
STARLINK-1080 2.9 05:40:27 10° SW 05:43:22 70° SSE 05:46:16 10° ENE
STARLINK-1090 2.9 05:40:41 10° SW 05:43:35 70° SSE 05:46:31 10° ENE
Cosmos 1459 Rocket 4.3 05:37:55 10° NNW 05:43:40 43° W 05:49:29 10° SSW
STARLINK-1089 2.9 05:40:54 10° SW 05:43:49 71° SSE 05:46:44 10° ENE
STARLINK-1167 3.7 05:41:41 12° NW 05:43:59 35° NNE 05:46:33 10° E
STARLINK-1107 2.9 05:41:07 10° SW 05:44:01 71° SSE 05:46:57 10° ENE
STARLINK-1109 2.9 05:41:20 10° SW 05:44:14 71° SSE 05:47:10 10° ENE
STARLINK-1091 2.9 05:41:35 10° SW 05:44:30 71° SSE 05:47:25 10° ENE
STARLINK-1114 4.3 05:40:44 10° SW 05:44:36 52° SE 05:48:30 10° ENE
STARLINK-1072 2.9 05:41:48 10° SW 05:44:43 72° SSE 05:47:38 10° ENE
STARLINK-1096 2.9 05:42:03 10° SW 05:44:56 72° SSE 05:47:52 10° ENE
STARLINK-1079 2.9 05:42:15 10° SW 05:45:10 72° SSE 05:48:06 10° ENE
STARLINK-1073 4.3 05:41:16 10° SW 05:45:12 52° SE 05:49:08 10° ENE
STARLINK-1116 2.9 05:42:29 10° SW 05:45:24 73° SSE 05:48:19 10° ENE
STARLINK-1094 2.9 05:42:55 10° SW 05:45:50 73° SSE 05:48:46 10° ENE
STARLINK-1117 2.8 05:43:09 10° SW 05:46:03 74° SSE 05:48:59 10° ENE
STARLINK-1078 2.8 05:43:23 10° SW 05:46:17 74° SSE 05:49:12 10° ENE
Cosmos 1151 Rocket 3.8 05:42:13 10° S 05:46:26 58° E 05:50:43 10° NNE
STARLINK-1108 2.8 05:43:35 10° WSW 05:46:30 74° SSE 05:49:25 10° ENE
STARLINK-1071 2.8 05:43:49 10° WSW 05:46:43 74° SSE 05:49:40 10° ENE
STARLINK-1110 2.8 05:44:03 10° WSW 05:46:58 75° SSE 05:49:53 10° ENE
STARLINK-1122 2.8 05:44:29 10° WSW 05:47:24 75° SSE 05:50:20 10° ENE
STARLINK-1126 2.8 05:44:42 10° WSW 05:47:38 76° SSE 05:50:34 10° ENE
STARLINK-1082 2.8 05:44:56 10° WSW 05:47:51 76° SSE 05:50:47 10° ENE
BREEZE M DEB (TANK) 3.7 05:44:47 12° WNW 05:48:01 82° SSW 05:58:40 10° ESE
Cosmos 1328 Rocket 4.2 05:43:39 10° S 05:48:02 62° E 05:52:26 10° NNE
STARLINK-1100 2.8 05:45:09 10° WSW 05:48:04 76° SSE 05:51:00 10° ENE
TELKOM 3 2.9 05:46:25 14° WNW 05:48:09 57° N 05:50:14 10° E
STARLINK-1083 2.8 05:45:23 10° WSW 05:48:19 77° SSE 05:51:14 10° ENE
STARLINK-1125 2.8 05:45:37 10° WSW 05:48:32 77° SSE 05:51:29 10° ENE
STARLINK-1130 (DARKSAT) 4.2 05:45:03 10° SW 05:48:57 56° SSE 05:52:54 10° ENE
STARLINK-1136 3.6 05:46:27 11° WNW 05:49:00 37° NNE 05:51:38 10° E
STARLINK-1121 4.2 05:45:50 10° SW 05:49:46 56° SSE 05:53:45 10° ENE
Shenzhou-11 Module 4.0 05:48:11 10° SW 05:50:11 19° SSE 05:52:10 10° ESE
Cosmos 1725 Rocket 4.0 05:46:00 10° NNW 05:52:11 65° W 05:58:23 10° S
CZ-4C R/B 4.0 05:47:55 10° WNW 05:52:28 22° N 05:57:38 10° NE
STARLINK-1084 4.1 05:49:29 10° SW 05:53:25 60° SSE 05:57:21 10° ENE
Cosmos 1400 Rocket 2.8 05:49:37 10° SSW 05:53:37 70° WNW 05:57:42 10° N
STARLINK-1106 4.1 05:50:31 10° SW 05:54:29 60° SSE 05:58:29 10° ENE
Cosmos 1954 Rocket 4.0 05:49:58 10° SSW 05:55:16 73° WNW 06:00:37 10° NNE
Cosmos 1869 4.4 05:52:30 10° SW 05:55:46 24° WNW 05:59:01 10° NNW
ALOS 3.1 05:52:21 10° N 05:56:19 28° WNW 06:00:17 10° WSW
Cosmos 2123 Rocket 4.0 05:50:25 10° SSW 05:56:42 69° WNW 06:03:00 10° N
Cosmos 407 Rocket 4.0 05:52:19 10° SW 05:57:17 38° WNW 06:02:14 10° N
STARLINK-1112 4.0 05:55:16 10° SW 05:59:15 65° SSE 06:03:17 10° ENE
Cosmos 921 Rocket 4.2 05:56:37 10° NW 06:00:05 23° W 06:03:29 10° SSW
Cosmos 1943 Rocket 3.6 05:57:06 10° WNW 06:00:16 16° W 06:03:25 10° SW
COSMO-SKYMED 1 4.1 05:57:59 10° SW 06:00:34 15° W 06:03:10 10° NW
STARLINK-1129 3.8 05:57:36 10° WNW 06:00:42 43° NNE 06:03:48 10° E
Cosmos 1140 Rocket 3.8 05:56:09 10° SW 06:01:11 47° WNW 06:06:16 10° NNE
STARLINK-1134 3.7 05:59:30 10° WNW 06:02:37 44° NNE 06:05:44 10° E
USA 215 4.0 05:56:34 10° ENE 06:02:42 44° N 06:08:49 10° WNW
Cosmos 1606 3.4 06:00:34 10° S 06:04:19 59° E 06:08:04 10° NNE
STARLINK-1135 3.7 06:01:53 10° WNW 06:05:00 44° NNE 06:08:08 10° E
Cosmos 1515 Rocket 4.4 06:01:28 10° S 06:05:50 59° E 06:10:12 10° NNE
Cosmos 1633 Rocket 3.2 06:01:40 10° NNW 06:05:56 52° W 06:10:11 10° S
